{"data":{"norad_id":61895,"intl_designator":"2024-205B","name":"2024-205B","alt_names":[],"object_type":"PAYLOAD","status":"ACTIVE","operator":null,"country":"PRC","launch_date":"2024-11-11","launch_site_code":"JSC","launch_vehicle":null,"mission":null,"orbit_class":"UNKNOWN","rcs_meters":null,"size_class":null,"mass_kg":null,"dimensions":null,"purposes":[],"wikipedia_slug":null,"has_3d_model":false,"image_url":null,"decayed_at":null,"tle_current":{"epoch":"2026-09-22T22:25:04.717632Z","epoch_age_seconds":91756,"freshness":"FRESH","line1":"1 61895U 24205B   26265.93408238  .00008016  00000+0  25919-3 0  9993","line2":"2 61895  97.4071 343.5459 0010318  53.9395 306.2801 15.32295310103644","mean_motion":15.3229531,"eccentricity":0.0010318,"inclination_deg":97.4071,"raan_deg":343.5459,"arg_perigee_deg":53.9395,"mean_anomaly_deg":306.2801,"bstar":0.00025919,"rev_number":10364,"period_min":93.976663023265,"perigee_km":461.90114079711,"apogee_km":476.03082251005,"semimajor_km":6847.1029816536,"source":"CELESTRAK","updated_at":"2026-09-23T09:00:21.095168Z"}}}